Terug naar catalogus

OPS 9434

DSCS 2-4

ActiefMilitairGEO
NORAD 6974·PAYLOAD·🇺🇸 United States

Gelanceerd Dec 13, 1973 vanaf Cape Canaveral Space Force Station

Loading…

TLE

VersSource: Space-Track

Epoch: Sep 14, 2026, 10:14 UTC

1 06974U 73100B   26257.42657784 -.00000150  00000-0  00000-0 0  9999
2 06974   4.4528 280.9333 0064137  86.6577 108.7253  0.97519801848498

Volg OPS 9434 in realtime met AllMySat

Download on the App Store